GW6509 Weather Reports


Display with metric or nautical units.
time (UTC)temp
F
wind
direction
speed
MPH
gust
MPH
rain 1hr
in
rain 24hr
in
rain mn
in
humidity
%
barometer
mb
20260507195250 69 49 2.0 2.0 0.00 0.00 0.00 42 1013.3
20260507194748 68 347 1.0 1.0 0.00 0.00 0.00 42 1013.4
20260507194244 68 354 1.0 1.0 0.00 0.00 0.00 42 1013.6
20260507193740 69 250 2.0 2.0 0.00 0.00 0.00 42 1013.5
20260507193237 70 194 4.0 6.0 0.00 0.00 0.00 42 1013.4
20260507192733 69 46 1.0 1.0 0.00 0.00 0.00 41 1013.7
20260507192230 69 144 2.0 4.0 0.00 0.00 0.00 41 1013.7
20260507191726 69 112 3.0 4.0 0.00 0.00 0.00 43 1013.6
20260507191223 69 282 1.0 1.0 0.00 0.00 0.00 42 1013.7
20260507190720 69 12 1.0 1.0 0.00 0.00 0.00 44 1013.7
20260507190219 68 71 0.0 1.0 0.00 0.00 0.00 44 1013.8
20260507185717 69 30 2.0 3.0 0.00 0.00 0.00 43 1013.8
20260507185213 68 280 1.0 2.0 0.00 0.00 0.00 43 1013.9
20260507184711 68 326 2.0 4.0 0.00 0.00 0.00 43 1014.0
20260507184209 67 116 6.0 9.0 0.00 0.00 0.00 44 1014.2
20260507183705 67 339 1.0 1.0 0.00 0.00 0.00 44 1014.2
20260507183202 67 262 1.0 2.0 0.00 0.00 0.00 45 1014.3
20260507182659 66 287 1.0 1.0 0.00 0.00 0.00 47 1014.4
20260507182154 67 162 1.0 2.0 0.00 0.00 0.00 45 1014.5
20260507181651 66 0 3.0 3.0 0.00 0.00 0.00 45 1014.6
20260507181148 66 203 2.0 3.0 0.00 0.00 0.00 46 1014.6
20260507180644 66 297 1.0 2.0 0.00 0.00 0.00 45 1014.5
20260507180142 67 306 2.0 2.0 0.00 0.00 0.00 44 1015.0
20260507175637 66 277 1.0 2.0 0.00 0.00 0.00 48 1014.7
20260507175135 66 1 2.0 4.0 0.00 0.00 0.00 45 1014.8
20260507174631 67 252 4.0 6.0 0.00 0.00 0.00 44 1015.0
20260507174130 66 151 1.0 3.0 0.00 0.00 0.00 46 1015.1
20260507173627 67 207 3.0 4.0 0.00 0.00 0.00 44 1015.4
20260507173124 66 341 2.0 2.0 0.00 0.00 0.00 45 1015.3
20260507172620 66 246 3.0 4.0 0.00 0.00 0.00 45 1015.2
20260507172117 65 33 0.0 1.0 0.00 0.00 0.00 46 1015.2
20260507171612 66 315 2.0 2.0 0.00 0.00 0.00 47 1015.4
20260507171109 67 291 1.0 2.0 0.00 0.00 0.00 45 1015.5
20260507170606 66 23 1.0 1.0 0.00 0.00 0.00 48 1015.5
20260507170103 66 182 1.0 1.0 0.00 0.00 0.00 45 1015.5
20260507165559 66 324 0.0 1.0 0.00 0.00 0.00 46 1015.8
20260507165055 65 245 2.0 2.0 0.00 0.00 0.00 47 1015.7
20260507164551 63 119 1.0 2.0 0.00 0.00 0.00 50 1015.7
20260507164048 64 190 1.0 2.0 0.00 0.00 0.00 48 1015.8
20260507163546 65 99 2.0 3.0 0.00 0.00 0.00 47 1015.9
20260507163044 64 306 2.0 2.0 0.00 0.00 0.00 47 1016.1
20260507162544 63 231 2.0 3.0 0.00 0.00 0.00 50 1016.0
20260507162041 65 255 2.0 3.0 0.00 0.00 0.00 47 1016.0
20260507161539 65 86 4.0 7.0 0.00 0.00 0.00 47 1016.0
20260507161034 64 22 2.0 2.0 0.00 0.00 0.00 47 1016.2
20260507160530 64 248 3.0 3.0 0.00 0.00 0.00 48 1016.0
20260507160027 64 347 1.0 2.0 0.00 0.00 0.00 49 1016.1
20260507155522 63 64 1.0 2.0 0.00 0.00 0.00 51 1016.1
20260507155020 65 301 1.0 2.0 0.00 0.00 0.00 49 1016.0
20260507154516 64 335 1.0 1.0 0.00 0.00 0.00 50 1016.2
20260507154013 63 0 0.0 0.0 0.00 0.00 0.00 51 1016.2
20260507153510 64 175 2.0 3.0 0.00 0.00 0.00 49 1016.3
20260507153006 63 245 2.0 4.0 0.00 0.00 0.00 50 1016.3
20260507152502 63 315 1.0 1.0 0.00 0.00 0.00 51 1016.3
20260507151959 62 63 1.0 2.0 0.00 0.00 0.00 52 1016.4
20260507151455 62 280 2.0 2.0 0.00 0.00 0.00 53 1016.5
20260507150952 61 298 2.0 3.0 0.00 0.00 0.00 52 1016.7
20260507150449 61 294 1.0 2.0 0.00 0.00 0.00 52 1016.8
20260507145945 61 355 1.0 1.0 0.00 0.00 0.00 53 1016.8
20260507145441 61 48 1.0 2.0 0.00 0.00 0.00 53 1016.7
20260507144938 61 120 2.0 3.0 0.00 0.00 0.00 54 1016.5
20260507144435 60 104 2.0 3.0 0.00 0.00 0.00 54 1016.8
20260507143932 60 338 1.0 1.0 0.00 0.00 0.00 56 1016.7
20260507143430 59 333 1.0 1.0 0.00 0.00 0.00 56 1016.9
20260507142926 59 11 2.0 3.0 0.00 0.00 0.00 57 1016.9
20260507142422 58 89 1.0 1.0 0.00 0.00 0.00 58 1016.5
20260507141919 58 335 0.0 1.0 0.00 0.00 0.00 58 1016.7
20260507141415 58 129 3.0 8.0 0.00 0.00 0.00 59 1016.7
20260507140912 56 335 1.0 2.0 0.00 0.00 0.00 61 1016.8
20260507140408 56 227 1.0 1.0 0.00 0.00 0.00 61 1017.1
20260507135907 55 293 0.0 1.0 0.00 0.00 0.00 62 1017.0
20260507135403 55 90 1.0 1.0 0.00 0.00 0.00 64 1016.9
20260507134900 55 6 0.0 1.0 0.00 0.00 0.00 65 1017.1
20260507134356 54 100 1.0 1.0 0.00 0.00 0.00 66 1016.8
20260507133852 54 24 1.0 2.0 0.00 0.00 0.00 66 1016.8
20260507133348 53 7 0.0 1.0 0.00 0.00 0.00 67 1016.9
20260507132847 53 350 0.0 0.0 0.00 0.00 0.00 67 1017.0
20260507132343 53 241 1.0 1.0 0.00 0.00 0.00 67 1016.9
20260507131840 52 36 2.0 2.0 0.00 0.00 0.00 68 1017.0
20260507131337 52 304 1.0 1.0 0.00 0.00 0.00 69 1017.2
20260507130834 51 332 0.0 0.0 0.00 0.00 0.00 71 1017.1
20260507130331 51 357 0.0 0.0 0.00 0.00 0.00 71 1017.3
20260507125830 50 150 2.0 2.0 0.00 0.00 0.00 71 1017.2
20260507125327 50 341 0.0 0.0 0.00 0.00 0.00 72 1017.2
20260507124824 49 324 0.0 0.0 0.00 0.00 0.00 72 1017.2
20260507124320 49 357 0.0 0.0 0.00 0.00 0.00 73 1017.3
20260507123819 49 356 0.0 0.0 0.00 0.00 0.00 73 1017.2
20260507123316 48 344 0.0 0.0 0.00 0.00 0.00 72 1017.2
20260507122812 47 4 0.0 0.0 0.00 0.00 0.00 75 1017.2
20260507122308 47 351 0.0 0.0 0.00 0.00 0.00 75 1017.2
20260507121804 46 334 0.0 0.0 0.00 0.00 0.00 76 1017.1
20260507121259 46 341 0.0 0.0 0.00 0.00 0.00 76 1017.1
20260507120756 46 187 1.0 1.0 0.00 0.00 0.00 76 1017.3
20260507120253 45 344 0.0 0.0 0.00 0.00 0.00 76 1017.1
20260507115749 45 330 0.0 0.0 0.00 0.00 0.00 76 1017.3
20260507115245 45 338 0.0 0.0 0.00 0.00 0.00 77 1017.1
20260507114740 44 352 0.0 0.0 0.00 0.00 0.00 78 1017.2
20260507114238 44 349 0.0 0.0 0.00 0.00 0.00 79 1017.2
20260507113736 44 349 0.0 0.0 0.00 0.00 0.00 79 1016.9
20260507113232 44 342 0.0 0.0 0.00 0.00 0.00 79 1017.0
20260507112730 43 343 0.0 0.0 0.00 0.00 0.00 79 1017.0
20260507112227 43 0 0.0 0.0 0.00 0.00 0.00 79 1016.8
20260507111724 43 13 0.0 0.0 0.00 0.00 0.00 79 1016.8
20260507111221 43 13 0.0 0.0 0.00 0.00 0.00 78 1016.8
20260507110716 43 13 0.0 0.0 0.00 0.00 0.00 78 1016.8
20260507110213 43 354 0.0 0.0 0.00 0.00 0.00 78 1016.9
20260507105711 43 353 0.0 0.0 0.00 0.00 0.00 78 1016.9
20260507105206 44 354 0.0 0.0 0.00 0.00 0.00 77 1016.9
20260507104704 43 350 0.0 0.0 0.00 0.00 0.00 77 1016.8
20260507104200 44 349 0.0 0.0 0.00 0.00 0.00 77 1016.8
20260507103656 43 350 0.0 0.0 0.00 0.00 0.00 76 1016.9
20260507103153 43 349 0.0 0.0 0.00 0.00 0.00 76 1016.9
20260507102649 44 350 0.0 0.0 0.00 0.00 0.00 76 1017.0
20260507102146 44 350 0.0 0.0 0.00 0.00 0.00 75 1017.1
20260507101641 44 350 0.0 0.0 0.00 0.00 0.00 74 1016.9
20260507101137 44 350 0.0 0.0 0.00 0.00 0.00 74 1016.9
20260507100635 43 350 0.0 0.0 0.00 0.00 0.00 74 1016.9
20260507100133 44 350 0.0 0.0 0.00 0.00 0.00 73 1017.0
20260507095631 44 350 0.0 0.0 0.00 0.00 0.00 72 1017.1
20260507095127 44 350 0.0 0.0 0.00 0.00 0.00 72 1016.9
20260507094623 44 350 0.0 0.0 0.00 0.00 0.00 71 1017.1
20260507094120 44 350 0.0 0.0 0.00 0.00 0.00 71 1017.1
20260507093618 44 350 0.0 0.0 0.00 0.00 0.00 69 1017.3
20260507093117 44 350 0.0 0.0 0.00 0.00 0.00 70 1017.3
20260507092612 44 345 0.0 0.0 0.00 0.00 0.00 70 1017.3
20260507092109 44 355 0.0 0.0 0.00 0.00 0.00 70 1017.1
20260507091606 44 345 0.0 0.0 0.00 0.00 0.00 71 1017.1
20260507091102 43 132 2.0 2.0 0.00 0.00 0.00 72 1017.3
20260507090558 43 341 0.0 0.0 0.00 0.00 0.00 73 1017.4
20260507090055 43 357 0.0 0.0 0.00 0.00 0.00 73 1017.2
20260507085552 43 346 0.0 0.0 0.00 0.00 0.00 73 1017.3
20260507085049 43 346 0.0 0.0 0.00 0.00 0.00 72 1017.2
20260507084546 43 346 0.0 0.0 0.00 0.00 0.00 72 1017.3
20260507084043 43 346 0.0 0.0 0.00 0.00 0.00 73 1017.3
20260507083539 44 346 0.0 0.0 0.00 0.00 0.00 72 1017.3
20260507083036 43 346 0.0 0.0 0.00 0.00 0.00 72 1017.4
20260507082531 43 346 0.0 0.0 0.00 0.00 0.00 72 1017.4
20260507082028 43 346 0.0 0.0 0.00 0.00 0.00 72 1017.3
20260507081525 44 346 0.0 0.0 0.00 0.00 0.00 71 1017.2
20260507081022 44 346 0.0 0.0 0.00 0.00 0.00 70 1017.1
20260507080517 44 346 0.0 0.0 0.00 0.00 0.00 70 1017.2
20260507080014 44 346 0.0 0.0 0.00 0.00 0.00 69 1017.3
20260507075509 44 346 0.0 0.0 0.00 0.00 0.00 69 1017.2
20260507075006 44 346 0.0 0.0 0.00 0.00 0.00 68 1017.1
20260507074503 44 346 0.0 0.0 0.00 0.00 0.00 68 1017.4
20260507074001 45 346 0.0 0.0 0.00 0.00 0.00 68 1017.2
20260507073457 45 338 0.0 0.0 0.00 0.00 0.00 68 1017.3
20260507072954 45 338 0.0 0.0 0.00 0.00 0.00 67 1017.1
20260507072451 45 338 0.0 0.0 0.00 0.00 0.00 66 1017.4
20260507071948 45 338 0.0 0.0 0.00 0.00 0.00 66 1017.5
20260507071445 45 338 0.0 0.0 0.00 0.00 0.00 65 1017.6
20260507070942 46 338 0.0 0.0 0.00 0.00 0.00 65 1017.7
20260507070440 46 338 0.0 0.0 0.00 0.00 0.00 65 1017.4
20260507065936 46 338 0.0 0.0 0.00 0.00 0.00 65 1017.8
20260507065433 46 338 0.0 0.0 0.00 0.00 0.00 64 1017.8
20260507064930 47 338 0.0 0.0 0.00 0.00 0.00 64 1017.7
20260507064428 47 338 0.0 0.0 0.00 0.00 0.00 64 1018.0
20260507063926 47 338 0.0 0.0 0.00 0.00 0.00 64 1017.9
20260507063423 47 338 0.0 0.0 0.00 0.00 0.00 64 1017.9
20260507062920 47 338 0.0 0.0 0.00 0.00 0.00 64 1017.8
20260507062417 47 338 0.0 0.0 0.00 0.00 0.00 64 1017.9
20260507061914 47 338 0.0 0.0 0.00 0.00 0.00 64 1017.9
20260507061412 47 340 0.0 0.0 0.00 0.00 0.00 64 1017.8
20260507060910 48 340 0.0 0.0 0.00 0.00 0.00 63 1018.0
20260507060406 48 340 0.0 0.0 0.00 0.00 0.00 62 1017.9
20260507055903 48 340 0.0 0.0 0.00 0.00 0.00 62 1018.0
20260507055358 48 340 0.0 0.0 0.00 0.00 0.00 62 1017.8
20260507054856 48 359 0.0 0.0 0.00 0.00 0.00 62 1018.0
20260507054352 48 355 0.0 0.0 0.00 0.00 0.00 63 1017.9
20260507053849 47 323 0.0 0.0 0.00 0.00 0.00 64 1017.9
20260507053347 47 323 0.0 0.0 0.00 0.00 0.00 64 1018.0
20260507052845 47 323 0.0 0.0 0.00 0.00 0.00 65 1018.0
20260507052342 46 323 0.0 0.0 0.00 0.00 0.00 65 1017.9
20260507051839 46 323 0.0 0.0 0.00 0.00 0.00 65 1017.9
20260507051337 46 323 0.0 0.0 0.00 0.00 0.00 64 1018.2
20260507050833 46 323 0.0 0.0 0.00 0.00 0.00 65 1018.0
20260507050330 46 323 0.0 0.0 0.00 0.00 0.00 66 1017.9
20260507045827 46 323 0.0 0.0 0.00 0.01 0.01 65 1017.9
20260507045323 46 323 0.0 0.0 0.00 0.01 0.01 65 1018.0
20260507044821 47 323 0.0 0.0 0.00 0.01 0.01 64 1018.1
20260507044317 47 323 0.0 0.0 0.00 0.01 0.01 64 1018.0
20260507043813 47 323 0.0 0.0 0.00 0.01 0.01 63 1018.0
20260507043310 47 323 0.0 0.0 0.00 0.01 0.01 62 1017.8
20260507042806 47 323 0.0 0.0 0.00 0.01 0.01 61 1018.0
20260507042301 47 323 0.0 0.0 0.00 0.01 0.01 61 1017.9
20260507041759 47 323 0.0 0.0 0.00 0.01 0.01 60 1017.9
20260507041255 47 323 0.0 0.0 0.00 0.01 0.01 61 1017.8
20260507040753 47 323 0.0 0.0 0.00 0.01 0.01 60 1017.9
20260507040248 47 323 0.0 0.0 0.00 0.01 0.01 60 1018.4
20260507035744 47 323 0.0 0.0 0.00 0.01 0.01 60 1018.0
20260507035240 47 323 0.0 0.0 0.00 0.01 0.01 61 1018.2
20260507034738 47 323 0.0 0.0 0.00 0.01 0.01 61 1018.2
20260507034235 46 323 0.0 0.0 0.00 0.01 0.01 63 1018.2
20260507033733 46 323 0.0 0.0 0.00 0.01 0.01 60 1018.1
20260507033230 46 323 0.0 0.0 0.00 0.01 0.01 59 1018.2
20260507032728 46 323 0.0 0.0 0.00 0.01 0.01 57 1018.3
20260507032223 46 323 0.0 0.0 0.00 0.01 0.01 57 1018.0
20260507031720 46 323 0.0 0.0 0.00 0.01 0.01 56 1018.0
20260507031217 47 323 0.0 0.0 0.00 0.01 0.01 54 1018.1
20260507030713 47 323 0.0 0.0 0.00 0.01 0.01 54 1018.1
20260507030211 47 323 0.0 0.0 0.00 0.01 0.01 54 1018.2
20260507025708 47 323 0.0 0.0 0.00 0.01 0.01 56 1018.0
20260507025205 48 323 0.0 0.0 0.00 0.01 0.01 56 1018.0
20260507024703 48 323 0.0 0.0 0.00 0.01 0.01 55 1018.1
20260507024200 48 323 0.0 0.0 0.00 0.01 0.01 55 1018.0
20260507023655 48 323 0.0 0.0 0.00 0.01 0.01 55 1018.0
20260507023153 48 323 0.0 0.0 0.00 0.01 0.01 54 1018.0
20260507022650 48 323 0.0 0.0 0.00 0.01 0.01 52 1017.8
20260507022146 49 323 0.0 0.0 0.00 0.01 0.01 51 1017.8
20260507021642 49 323 0.0 0.0 0.00 0.01 0.01 51 1017.8
20260507021137 49 323 0.0 0.0 0.00 0.01 0.01 51 1017.7
20260507020636 50 323 0.0 0.0 0.00 0.01 0.01 50 1017.5
20260507020132 50 323 0.0 0.0 0.00 0.01 0.01 50 1017.7
20260507015631 50 323 0.0 0.0 0.00 0.01 0.01 48 1017.5
20260507015128 50 323 0.0 0.0 0.00 0.01 0.01 48 1017.4
20260507014624 51 323 0.0 0.0 0.00 0.01 0.01 46 1017.5
20260507014120 51 323 0.0 0.0 0.00 0.01 0.01 47 1017.6
20260507013617 52 323 0.0 0.0 0.00 0.01 0.01 46 1017.5
20260507013114 52 323 0.0 0.0 0.00 0.01 0.01 46 1017.5
20260507012612 53 323 0.0 0.0 0.00 0.01 0.01 45 1017.4
20260507012107 53 323 0.0 0.0 0.00 0.01 0.01 43 1017.3
20260507011605 54 323 0.0 0.0 0.00 0.01 0.01 43 1017.2
20260507011101 54 323 0.0 0.0 0.00 0.01 0.01 41 1017.4
20260507010556 55 326 0.0 0.0 0.00 0.01 0.01 39 1017.3
20260507010052 55 336 0.0 0.0 0.00 0.01 0.01 38 1017.3
20260507005550 56 347 0.0 0.0 0.00 0.01 0.01 38 1017.3
20260507005046 56 353 0.0 0.0 0.00 0.01 0.01 36 1017.2
20260507004543 57 329 0.0 0.0 0.00 0.01 0.01 37 1017.2
20260507004040 57 328 0.0 0.0 0.00 0.01 0.01 36 1017.2
20260507003536 57 335 0.0 0.0 0.00 0.01 0.01 36 1017.1
20260507003031 58 320 0.0 1.0 0.00 0.01 0.01 33 1017.0
20260507002528 58 319 0.0 1.0 0.00 0.01 0.01 34 1017.3
20260507002024 58 328 1.0 1.0 0.00 0.01 0.01 33 1017.3
20260507001521 58 359 0.0 0.0 0.00 0.01 0.01 34 1017.2
20260507001019 58 340 0.0 0.0 0.00 0.01 0.01 33 1017.3
20260507000514 58 306 1.0 1.0 0.00 0.01 0.01 33 1017.2
20260507000010 58 329 1.0 1.0 0.00 0.01 0.01 32 1017.2
20260506235508 59 324 1.0 1.0 0.00 0.01 0.01 33 1017.1
20260506235003 59 270 2.0 3.0 0.00 0.01 0.01 32 1017.2
20260506234501 59 353 1.0 1.0 0.00 0.01 0.01 31 1017.2
20260506233958 59 3 2.0 2.0 0.00 0.01 0.01 31 1017.2
20260506233454 59 326 1.0 2.0 0.00 0.01 0.01 31 1017.3
20260506232951 59 69 2.0 4.0 0.00 0.01 0.01 31 1017.3
20260506232447 59 332 3.0 4.0 0.00 0.01 0.01 30 1017.1
20260506231943 59 325 1.0 1.0 0.00 0.01 0.01 32 1017.1
20260506231441 59 297 2.0 2.0 0.00 0.01 0.01 31 1017.1
20260506230938 59 7 1.0 1.0 0.00 0.01 0.01 31 1017.0
20260506230434 59 299 3.0 3.0 0.00 0.01 0.01 33 1017.2
20260506225931 60 295 2.0 3.0 0.00 0.01 0.01 31 1017.0
20260506225428 60 4 0.0 0.0 0.00 0.01 0.01 33 1017.1
20260506224925 60 10 2.0 2.0 0.00 0.01 0.01 32 1017.1
20260506224423 60 353 1.0 2.0 0.00 0.01 0.01 31 1017.0
20260506223919 60 321 2.0 3.0 0.00 0.01 0.01 31 1017.1
20260506223414 60 337 2.0 2.0 0.00 0.01 0.01 32 1017.1
20260506222912 60 259 2.0 3.0 0.00 0.01 0.01 30 1017.1
20260506222408 60 58 2.0 3.0 0.00 0.01 0.01 30 1017.2
20260506221906 61 339 2.0 3.0 0.00 0.01 0.01 30 1017.1
20260506221402 61 275 5.0 6.0 0.00 0.01 0.01 28 1017.2
20260506220859 62 269 2.0 2.0 0.00 0.01 0.01 32 1017.1
20260506220355 62 328 0.0 0.0 0.00 0.01 0.01 31 1017.2
20260506215852 62 305 2.0 3.0 0.00 0.01 0.01 30 1017.4
20260506215347 61 45 3.0 4.0 0.00 0.01 0.01 32 1017.4
20260506214844 61 343 2.0 4.0 0.00 0.01 0.01 32 1017.3
20260506214341 62 303 2.0 3.0 0.00 0.01 0.01 31 1017.3
20260506213839 61 32 2.0 3.0 0.00 0.01 0.01 29 1017.4
20260506213336 61 4 2.0 3.0 0.00 0.01 0.01 30 1017.6
20260506212833 62 343 4.0 6.0 0.00 0.01 0.01 30 1017.6
20260506212329 62 313 1.0 2.0 0.00 0.01 0.01 32 1017.7
20260506211824 62 335 1.0 1.0 0.00 0.01 0.01 32 1017.8
20260506211320 61 277 3.0 6.0 0.00 0.01 0.01 31 1017.6
20260506210818 61 282 3.0 3.0 0.00 0.01 0.01 29 1017.8
20260506210314 62 3 4.0 6.0 0.00 0.01 0.01 30 1017.9
20260506205812 62 339 2.0 3.0 0.00 0.01 0.01 29 1017.8
20260506205307 62 295 2.0 3.0 0.00 0.01 0.01 31 1017.9
20260506204804 61 307 1.0 2.0 0.00 0.01 0.01 32 1018.1
20260506204302 60 338 4.0 4.0 0.00 0.01 0.01 31 1018.2
20260506203800 61 54 2.0 2.0 0.00 0.01 0.01 29 1018.3
20260506203257 61 27 2.0 3.0 0.00 0.01 0.01 30 1018.3
20260506202753 62 54 2.0 3.0 0.00 0.01 0.01 28 1018.4
20260506202250 61 332 1.0 2.0 0.00 0.01 0.01 30 1018.4
20260506201747 61 10 2.0 3.0 0.00 0.01 0.01 28 1018.4
20260506201244 61 0 2.0 3.0 0.00 0.01 0.01 28 1018.6
20260506200741 62 330 1.0 1.0 0.00 0.01 0.01 29 1018.5
20260506200237 61 352 0.0 1.0 0.00 0.01 0.01 29 1018.5
20260506195733 61 337 1.0 2.0 0.00 0.01 0.01 28 1018.7